This demonstration page uses our WeatherBlox Daily Observations layout. Learn more.

Left ArrowRight Arrow

Hourly Observations for March 17, 2019

Temp ( °F °C ) Dew Point ( °F °C ) Humidity (%) Winds ( mph kmh ) Pressure ( in mb ) Visibility ( mi km ) Precip ( " mm )
12:57 am 00:57 Clear 30 -1.1 27 -2.8 88 88 SSE 3 6 30.41 1030 10 16 0.00 0.00
1:57 am 01:57 Clear 30 -1.1 26 -3.3 85 85 Calm 30.40 1029 10 16 0.00 0.00
2:57 am 02:57 Clear 29 -1.7 26 -3.3 89 89 Calm 30.39 1029 10 16 0.00 0.00
3:57 am 03:57 Clear 29 -1.7 26 -3.3 89 89 Calm 30.37 1029 10 16 0.00 0.00
4:57 am 04:57 Clear 27 -2.8 25 -3.9 92 92 N 3 6 30.35 1028 10 16 0.00 0.00
5:57 am 05:57 Clear 25 -3.9 23 -5 92 92 WNW 5 7 30.36 1028 10 16 0.00 0.00
6:57 am 06:57 Clear 25 -3.9 23 -5 92 92 NW 5 7 30.36 1028 10 16 0.00 0.00
7:57 am 07:57 Sunny 25 -3.9 23 -5 92 92 SSW 5 7 30.38 1029 10 16 0.00 0.00
8:57 am 08:57 Sunny 30 -1.1 27 -2.8 88 88 WSW 8 13 30.40 1029 10 16 0.00 0.00
9:57 am 09:57 Sunny 35 1.7 28 -2.2 76 76 WSW 8 13 30.40 1030 10 16 0.00 0.00
10:57 am 10:57 Mostly Cloudy 37 2.8 28 -2.2 70 70 WSW 7 11 30.40 1029 10 16 0.00 0.00
11:57 am 11:57 Mostly Cloudy 41 5 26 -3.3 55 55 WSW 12 19 30.37 1029 10 16 0.00 0.00
12:57 pm 12:57 Cloudy 43 6.1 28 -2.2 56 56 SW 7 11 30.36 1028 10 16 0.00 0.00
1:57 pm 13:57 Sunny 47 8.3 27 -2.8 46 46 SW 12 19 30.33 1027 10 16 0.00 0.00
2:57 pm 14:57 Sunny 48 8.9 30 -1.1 50 50 SW 15 24 30.31 1026 10 16 0.00 0.00
3:57 pm 15:57 Sunny 50 10 32 0 50 50 W 10 17 30.30 1026 10 16 0.00 0.00
4:57 pm 16:57 Sunny 52 11.1 33 0.6 49 49 SW 12 19 30.29 1026 10 16 0.00 0.00
5:57 pm 17:57 Sunny 52 11.1 33 0.6 49 49 W 7 11 30.29 1026 10 16 0.00 0.00
6:57 pm 18:57 Partly Cloudy 52 11.1 34 1.1 50 50 WSW 5 7 30.29 1026 10 16 0.00 0.00
7:38 pm 19:38 Partly Cloudy 48 9 34 1 58 58 N 17 28 30.30 1026 10 16 0.00 0.00
7:57 pm 19:57 Clear 45 7.2 34 1.1 66 66 N 14 22 30.35 1028 10 16 0.00 0.00
8:57 pm 20:57 Clear 40 4.4 32 0 73 73 N 18 30 30.38 1029 10 16 0.00 0.00
9:57 pm 21:57 Clear 37 2.8 30 -1.1 76 76 N 16 26 30.40 1030 10 16 0.00 0.00
10:57 pm 22:57 Clear 34 1.1 28 -2.2 79 79 NNE 9 15 30.43 1031 10 16 0.00 0.00
11:57 pm 23:57 Clear 33 0.6 27 -2.8 78 78 N 14 22 30.45 1031 10 16 0.00 0.00

Powered by AerisWeather